George, South Africa

11:26 AM SAST on January 22, 2018 (GMT +0200)
George

Weather History for FAGG - May, 2014

Change the Weather History Date:

Sunday, May 4, 2014

  Actual Average Record
Temperature  
Mean Temperature 64 °F -  
Max Temperature 75 °F 68 °F 77 °F (2001)
Min Temperature 52 °F 48 °F 42 °F (2000)
Degree Days  
Heating Degree Days 2    
Growing Degree Days 14 (Base 50)    
Moisture  
Dew Point 54 °F    
Average Humidity 76    
Maximum Humidity 94    
Minimum Humidity 51    
Precipitation  
Precipitation 0.00 in - - ()
Sea Level Pressure  
Sea Level Pressure 29.89 in    
Wind  
Wind Speed 7 mph ()    
Max Wind Speed 25 mph    
Max Gust Speed 37 mph    
Visibility 6.7 miles    
Events Fog , Rain    
Averages and records for this station are not official NWS values.
T = Trace of Precipitation, MM = Missing Value Source: Averaged Metar Reports

Daily Weather History Graph

Daily Weather History Graph

Search for Another Location

Airport or City:

Trip Planner

Search our weather history database for the weather conditions in past years. The results will help you decide how hot, cold, wet, or windy it might be!

Date:

Astronomy

May. 04, 2014 Rise Set
Actual Time 7:07 AM SAST 5:46 PM SAST
Civil Twilight 6:41 AM SAST 6:12 PM SAST
Nautical Twilight 6:11 AM SAST 6:42 PM SAST
Astronomical Twilight 5:42 AM SAST 7:11 PM SAST
Moon 11:29 AM SAST (5/4) 10:12 PM SAST (5/4)
Length of Visible Light 11h 31m
Length of Day
10h 39m
Waxing Crescent, 25% of the Moon is Illuminated
May 4
Waxing Crescent
May 7
First Quarter
May 14
Full
May 21
Last Quarter
May 28
New

Hourly Weather History & Observations

Time (SAST) Temp. Dew Point Humidity Pressure Visibility Wind Dir Wind Speed Gust Speed Precip Events Conditions
12:00 AM 59.0 °F 57.2 °F 94% 29.92 in 6.2 mi NW 4.6 mph - N/A   Mostly Cloudy
1:00 AM 59.0 °F 55.4 °F 88% 29.89 in 5.6 mi NW 3.5 mph - N/A   Unknown
2:00 AM 58 °F 55 °F 88% 29.89 in 6 mi 2.3 mph - -  
5:00 AM 53 °F 51 °F 92% 29.88 in 2 mi WNW 5.8 mph - - Fog Light Fog
5:00 AM 53.6 °F 51.8 °F 94% 29.86 in 1.6 mi WNW 5.8 mph - N/A Fog Patches of Fog
6:00 AM 55.4 °F 51.8 °F 88% 29.86 in 6.2 mi NNW 4.6 mph - N/A   Scattered Clouds
7:00 AM 53.6 °F 50.0 °F 88% 29.83 in - ENE 5.8 mph - N/A   Clear
8:00 AM 56 °F 51 °F 77% 29.83 in 12 mi NE 6.9 mph - -   Mostly Cloudy
8:00 AM 55.4 °F 51.8 °F 88% 29.80 in - NE 6.9 mph - N/A   Clear
9:00 AM 62.6 °F 55.4 °F 77% 29.80 in - ENE 6.9 mph - N/A   Clear
10:00 AM 68.0 °F 57.2 °F 68% 29.80 in - SW 4.6 mph - N/A   Clear
11:00 AM 73 °F 59 °F 51% 29.80 in 12 mi WNW 5.8 mph - -   Partly Cloudy
11:00 AM 73.4 °F 59.0 °F 61% 29.80 in - WNW 5.8 mph - N/A   Clear
12:00 PM 68.0 °F 53.6 °F 60% 29.80 in - SW 12.7 mph - N/A   Clear
1:00 PM 73.4 °F 55.4 °F 53% 29.80 in - West 8.1 mph - N/A   Clear
2:00 PM 71 °F 59 °F 56% 29.80 in 12 mi SSW 6.9 mph - -   Scattered Clouds
2:00 PM 71.6 °F 59.0 °F 64% 29.80 in - SSW 6.9 mph - N/A   Clear
3:00 PM 71.6 °F 59.0 °F 64% 29.80 in - South 5.8 mph - N/A   Clear
4:00 PM 69.8 °F 53.6 °F 56% 29.83 in - South 12.7 mph - N/A   Clear
5:00 PM 64 °F 58 °F 75% 29.90 in 12 mi SW 3.5 mph - -   Mostly Cloudy
5:00 PM 64.4 °F 59.0 °F 83% 29.89 in 6.2 mi SW 3.5 mph - N/A   Mostly Cloudy
6:00 PM 64.4 °F 59.0 °F 83% 29.92 in 6.2 mi SE 3.5 mph - N/A   Mostly Cloudy
7:00 PM 60.8 °F 51.8 °F 72% 29.98 in 6.2 mi WSW 25.3 mph 36.8 mph N/A   Mostly Cloudy
8:00 PM 57 °F 53 °F 80% 30.07 in 4 mi West 18.4 mph - - Rain Light Rain
8:00 PM 57.2 °F 51.8 °F 82% 30.06 in 3.7 mi West 18.4 mph - N/A Rain Light Rain
9:00 PM 53.6 °F 50.0 °F 88% 30.09 in 6.2 mi West 23.0 mph 35.7 mph N/A   Mostly Cloudy
10:00 PM 55.4 °F 46.4 °F 72% 30.15 in 6.2 mi West 16.1 mph - N/A   Mostly Cloudy
11:00 PM 53.6 °F 46.4 °F 77% 30.15 in 6.2 mi WNW 17.3 mph - N/A   Overcast